GFSFLT2_prec_precacc_228.txt.gz
Total_Precipitation_Accumulation
5.29 7.55 5.19 4.08 4.31 3.31 3.34 2.38 2.16 1.90 1.39 0.82 0.43 0.44 0.59 0.33 0.27 0.21 0.15 0.13 0.18 0.26 0.19 0.15 0.09 0.06 0.07 0.06 0.13 0.04 0.14 0.47
6.78 6.77 5.27 3.53 3.46 4.03 3.26 3.43 2.82 2.05 1.61 1.32 0.47 0.54 0.47 0.51 0.32 0.26 0.15 0.09 0.11 0.13 0.21 0.24 0.28 0.27 0.08 0.08 0.22 0.17 0.13 0.29
5.85 7.31 6.12 3.64 2.53 3.43 2.96 3.66 3.20 2.04 1.59 2.08 0.83 0.42 0.44 0.39 0.29 0.18 0.17 0.11 0.11 0.17 0.38 0.35 0.30 0.26 0.18 0.20 0.21 0.12 0.17 0.10
3.34 5.36 6.95 4.41 2.99 2.12 2.22 2.96 4.64 2.34 1.57 1.79 1.46 0.60 0.52 0.36 0.30 0.28 0.30 0.28 0.33 0.61 0.62 0.49 0.31 0.16 0.16 0.30 0.13 0.08 0.18 0.13
1.49 2.50 4.27 3.75 3.14 2.62 2.26 2.43 4.19 3.53 1.69 1.25 1.59 0.71 0.71 0.56 0.49 0.53 0.50 0.47 0.58 0.62 0.68 0.72 0.64 0.40 0.28 0.47 0.26 0.13 0.36 0.63
1.14 0.98 2.11 2.13 1.87 2.22 2.07 1.43 2.06 3.80 1.92 1.46 1.24 1.22 0.77 0.52 0.34 0.37 0.35 0.31 0.38 0.41 0.58 0.60 0.48 0.46 0.43 0.22 0.15 0.11 0.16 0.36
1.09 0.88 1.18 1.71 1.81 1.88 1.58 0.94 1.27 2.74 2.32 1.70 1.09 1.32 1.09 0.75 0.53 0.29 0.22 0.24 0.29 0.24 0.29 0.31 0.27 0.29 0.31 0.25 0.21 0.16 0.13 0.21
0.62 0.79 0.73 1.09 1.61 1.31 1.42 0.98 1.02 2.02 2.46 1.77 1.20 0.91 0.94 0.55 0.45 0.43 0.46 0.42 0.29 0.25 0.27 0.24 0.36 0.59 0.62 0.48 0.28 0.17 0.16 0.16
0.46 0.56 0.66 1.09 1.40 1.13 1.07 0.97 0.84 1.29 2.06 1.80 1.80 1.06 0.89 0.66 0.46 0.36 0.34 0.40 0.57 0.61 0.49 0.35 0.29 0.35 0.61 0.44 0.31 0.21 0.23 0.16
0.32 0.65 0.95 1.02 1.17 1.11 1.17 0.95 0.85 1.26 1.73 1.73 1.89 1.76 0.89 0.88 0.65 0.35 0.29 0.49 0.74 0.88 0.65 0.33 0.29 0.30 0.31 0.20 0.12 0.14 0.17 0.18
0.51 0.84 1.27 1.58 1.50 1.51 1.95 1.74 1.40 1.26 1.60 1.63 1.29 1.85 1.30 0.87 0.82 0.56 0.59 0.45 0.56 0.88 0.85 0.70 0.47 0.29 0.30 0.29 0.13 0.08 0.12 0.16
0.70 1.10 1.40 1.59 2.41 2.26 2.07 1.56 1.48 1.35 1.49 1.48 1.36 1.61 1.81 1.33 1.01 0.87 1.00 0.99 0.74 0.75 0.92 0.87 0.79 0.67 0.61 0.50 0.30 0.17 0.16 0.17
0.83 1.25 1.58 1.29 0.95 0.81 1.06 1.00 0.95 1.16 1.50 1.36 1.03 1.26 1.42 1.67 1.14 0.83 0.84 0.94 0.93 1.14 1.10 0.95 0.66 0.84 1.24 1.01 0.71 0.36 0.27 0.20
0.42 0.43 0.62 0.31 0.26 0.38 0.74 0.95 1.02 1.06 1.30 1.15 1.07 1.22 1.49 1.47 1.36 1.21 0.80 0.80 0.93 1.39 1.44 1.41 0.88 1.17 1.46 1.60 1.26 1.02 0.57 0.38
0.07 0.08 0.36 0.36 0.36 0.50 0.80 1.23 1.26 1.32 1.55 1.42 1.21 1.47 1.44 1.56 1.26 1.48 1.32 1.33 1.14 1.30 1.56 1.38 0.98 1.07 1.24 1.40 1.40 1.13 0.80 0.68
0.05 0.11 0.28 0.58 0.66 0.66 0.70 0.95 0.93 1.03 1.12 1.40 1.28 1.30 1.45 1.56 1.58 1.72 1.67 1.58 1.54 1.44 1.62 1.54 1.55 1.21 1.36 1.10 1.02 1.03 1.08 0.84
0.31 0.42 0.48 0.59 0.71 0.81 0.78 0.88 0.95 1.03 1.18 1.51 1.68 1.27 1.10 1.15 1.40 1.54 1.71 1.72 1.64 1.72 1.72 1.84 1.80 1.97 1.99 1.98 1.87 1.73 1.78 1.76
0.54 0.54 0.56 0.65 0.73 0.83 0.88 0.88 0.95 0.90 1.13 1.52 2.25 2.24 1.74 1.50 1.51 1.51 1.66 1.80 1.67 1.91 2.01 1.89 2.16 2.30 2.50 2.84 2.92 2.93 2.76 2.75
0.72 0.74 0.66 0.74 0.86 0.94 0.97 1.04 1.00 1.03 1.06 1.20 1.71 2.78 2.82 2.36 2.10 2.20 2.37 2.66 2.88 2.96 3.13 2.98 2.77 2.91 2.58 2.50 2.50 2.52 2.66 3.17
0.83 0.95 0.96 0.81 0.84 1.07 1.17 1.22 1.44 1.45 1.50 1.52 1.51 1.77 2.44 2.69 2.61 2.48 2.89 3.53 3.77 4.16 4.09 3.85 3.88 3.75 3.59 3.28 2.96 2.65 2.41 2.24

GFSFLT2_prec_precacc_234.txt.gz
Total_Precipitation_Accumulation
5.29 7.55 5.19 4.08 4.32 3.31 3.34 2.38 2.16 1.90 1.39 0.82 0.43 0.44 0.59 0.33 0.27 0.21 0.15 0.13 0.18 0.26 0.19 0.15 0.09 0.06 0.07 0.06 0.13 0.04 0.14 0.47
6.78 6.77 5.27 3.53 3.46 4.03 3.26 3.43 2.82 2.05 1.61 1.32 0.47 0.54 0.47 0.51 0.32 0.26 0.15 0.09 0.11 0.13 0.21 0.24 0.28 0.27 0.08 0.08 0.22 0.17 0.13 0.29
5.86 7.32 6.12 3.64 2.53 3.44 2.97 3.66 3.20 2.04 1.59 2.08 0.83 0.42 0.44 0.39 0.29 0.18 0.17 0.11 0.11 0.17 0.38 0.35 0.30 0.26 0.18 0.20 0.21 0.12 0.17 0.10
3.34 5.36 6.95 4.41 2.99 2.12 2.22 2.96 4.64 2.34 1.57 1.79 1.46 0.60 0.52 0.36 0.30 0.28 0.30 0.28 0.33 0.61 0.62 0.49 0.31 0.16 0.16 0.30 0.13 0.08 0.18 0.13
1.49 2.50 4.27 3.75 3.14 2.62 2.26 2.43 4.19 3.53 1.69 1.25 1.59 0.71 0.71 0.56 0.49 0.53 0.50 0.47 0.58 0.62 0.68 0.72 0.64 0.40 0.28 0.47 0.26 0.13 0.36 0.63
1.14 0.98 2.11 2.13 1.87 2.22 2.07 1.43 2.06 3.80 1.92 1.46 1.24 1.22 0.77 0.52 0.34 0.37 0.35 0.31 0.38 0.41 0.58 0.60 0.48 0.46 0.43 0.22 0.15 0.11 0.16 0.36
1.09 0.88 1.18 1.71 1.81 1.88 1.58 0.94 1.27 2.74 2.32 1.70 1.09 1.32 1.09 0.75 0.53 0.29 0.22 0.24 0.29 0.24 0.29 0.31 0.27 0.29 0.31 0.25 0.21 0.16 0.13 0.21
0.62 0.80 0.73 1.09 1.61 1.31 1.42 0.98 1.02 2.02 2.46 1.77 1.20 0.91 0.94 0.55 0.45 0.43 0.46 0.42 0.29 0.25 0.27 0.24 0.36 0.59 0.62 0.48 0.28 0.17 0.16 0.16
0.46 0.57 0.67 1.09 1.40 1.13 1.07 0.97 0.84 1.29 2.06 1.80 1.80 1.06 0.89 0.66 0.46 0.36 0.34 0.40 0.57 0.61 0.49 0.35 0.29 0.35 0.61 0.44 0.31 0.21 0.23 0.16
0.32 0.68 1.00 1.04 1.17 1.11 1.17 0.95 0.85 1.26 1.73 1.73 1.89 1.76 0.89 0.88 0.65 0.35 0.29 0.49 0.75 0.91 0.70 0.38 0.31 0.31 0.32 0.20 0.12 0.14 0.17 0.18
0.51 0.85 1.29 1.59 1.50 1.51 1.95 1.74 1.40 1.26 1.60 1.63 1.29 1.85 1.30 0.88 0.85 0.66 0.69 0.59 0.73 1.07 0.98 0.80 0.52 0.31 0.32 0.31 0.15 0.09 0.12 0.16
0.70 1.10 1.41 1.60 2.41 2.26 2.07 1.56 1.48 1.35 1.49 1.48 1.36 1.61 1.81 1.34 1.02 0.91 1.05 1.05 0.82 0.85 1.01 0.96 0.88 0.74 0.64 0.52 0.31 0.17 0.16 0.17
0.83 1.25 1.58 1.29 0.95 0.81 1.06 1.00 0.95 1.16 1.50 1.36 1.03 1.26 1.42 1.67 1.14 0.83 0.85 0.95 0.96 1.18 1.14 0.98 0.68 0.88 1.29 1.04 0.72 0.37 0.27 0.20
0.42 0.43 0.62 0.31 0.26 0.38 0.74 0.95 1.02 1.06 1.30 1.15 1.07 1.22 1.49 1.47 1.36 1.21 0.80 0.80 0.93 1.39 1.44 1.41 0.90 1.19 1.50 1.65 1.29 1.03 0.57 0.38
0.07 0.08 0.36 0.36 0.36 0.50 0.80 1.23 1.26 1.32 1.55 1.42 1.21 1.47 1.44 1.56 1.26 1.48 1.32 1.33 1.14 1.30 1.56 1.39 0.99 1.08 1.26 1.47 1.45 1.15 0.82 0.68
0.05 0.11 0.28 0.58 0.66 0.66 0.70 0.95 0.93 1.03 1.12 1.40 1.28 1.30 1.45 1.56 1.58 1.72 1.67 1.58 1.54 1.44 1.62 1.54 1.55 1.21 1.36 1.12 1.07 1.10 1.16 0.87
0.31 0.42 0.48 0.59 0.71 0.81 0.78 0.88 0.95 1.03 1.18 1.51 1.68 1.27 1.10 1.15 1.40 1.54 1.71 1.72 1.64 1.72 1.72 1.84 1.80 1.97 1.99 1.99 1.88 1.74 1.80 1.81
0.54 0.54 0.56 0.65 0.73 0.83 0.88 0.88 0.95 0.90 1.13 1.52 2.25 2.24 1.74 1.50 1.51 1.51 1.66 1.80 1.67 1.91 2.01 1.89 2.16 2.30 2.50 2.85 2.93 2.94 2.77 2.79
0.72 0.74 0.66 0.74 0.86 0.94 0.97 1.04 1.00 1.03 1.06 1.20 1.71 2.78 2.82 2.36 2.10 2.20 2.37 2.66 2.88 2.96 3.13 2.98 2.77 2.92 2.58 2.51 2.51 2.52 2.67 3.18
0.83 0.95 0.96 0.81 0.84 1.07 1.17 1.22 1.44 1.45 1.50 1.52 1.51 1.77 2.44 2.69 2.61 2.48 2.89 3.53 3.77 4.16 4.09 3.85 3.88 3.76 3.62 3.32 2.99 2.66 2.42 2.25

GFSFLT2_prec_precacc_237.txt.gz
Total_Precipitation_Accumulation
5.29 7.55 5.19 4.08 4.32 3.31 3.34 2.38 2.16 1.90 1.39 0.82 0.43 0.44 0.59 0.33 0.27 0.21 0.15 0.13 0.18 0.26 0.19 0.15 0.09 0.06 0.07 0.06 0.13 0.04 0.14 0.47
6.78 6.77 5.27 3.53 3.46 4.03 3.26 3.43 2.82 2.05 1.61 1.32 0.47 0.54 0.47 0.51 0.32 0.26 0.15 0.09 0.11 0.13 0.21 0.24 0.28 0.27 0.08 0.08 0.22 0.17 0.13 0.29
5.86 7.32 6.12 3.64 2.53 3.44 2.97 3.66 3.20 2.04 1.59 2.08 0.83 0.42 0.44 0.39 0.29 0.18 0.17 0.11 0.11 0.17 0.38 0.35 0.30 0.26 0.18 0.20 0.21 0.12 0.17 0.10
3.34 5.36 6.95 4.41 2.99 2.12 2.22 2.96 4.64 2.34 1.57 1.79 1.46 0.60 0.52 0.36 0.30 0.28 0.30 0.28 0.33 0.61 0.62 0.49 0.31 0.16 0.16 0.30 0.13 0.08 0.18 0.13
1.49 2.51 4.27 3.75 3.14 2.62 2.27 2.44 4.19 3.53 1.69 1.25 1.59 0.71 0.71 0.56 0.49 0.53 0.50 0.47 0.58 0.62 0.68 0.72 0.64 0.40 0.28 0.47 0.26 0.13 0.36 0.63
1.14 0.98 2.12 2.14 1.87 2.22 2.07 1.44 2.06 3.80 1.92 1.46 1.24 1.22 0.77 0.52 0.34 0.37 0.35 0.31 0.38 0.41 0.58 0.60 0.48 0.46 0.43 0.22 0.15 0.11 0.16 0.36
1.09 0.88 1.18 1.71 1.81 1.88 1.58 0.94 1.27 2.74 2.32 1.70 1.09 1.32 1.09 0.75 0.53 0.29 0.22 0.24 0.29 0.24 0.29 0.31 0.27 0.29 0.31 0.25 0.21 0.16 0.13 0.21
0.62 0.80 0.73 1.09 1.61 1.31 1.42 0.98 1.02 2.02 2.46 1.77 1.20 0.91 0.94 0.55 0.45 0.43 0.46 0.42 0.29 0.25 0.27 0.24 0.36 0.59 0.62 0.48 0.29 0.18 0.17 0.16
0.46 0.57 0.67 1.09 1.40 1.13 1.07 0.97 0.84 1.29 2.07 1.81 1.80 1.06 0.89 0.66 0.46 0.36 0.34 0.40 0.57 0.61 0.49 0.35 0.29 0.35 0.61 0.44 0.31 0.21 0.23 0.16
0.32 0.68 1.01 1.04 1.17 1.11 1.17 0.95 0.86 1.26 1.73 1.73 1.89 1.76 0.89 0.88 0.65 0.35 0.29 0.50 0.75 0.91 0.70 0.39 0.32 0.31 0.32 0.20 0.12 0.14 0.17 0.18
0.52 0.90 1.32 1.61 1.50 1.51 1.96 1.74 1.40 1.26 1.60 1.63 1.29 1.85 1.30 0.88 0.85 0.66 0.69 0.59 0.73 1.07 0.99 0.80 0.53 0.32 0.32 0.31 0.15 0.09 0.12 0.16
0.71 1.16 1.44 1.62 2.41 2.26 2.07 1.56 1.48 1.35 1.49 1.48 1.36 1.61 1.81 1.34 1.02 0.91 1.05 1.05 0.82 0.85 1.01 0.96 0.88 0.74 0.64 0.52 0.31 0.17 0.16 0.17
0.84 1.27 1.58 1.30 0.95 0.81 1.06 1.00 0.95 1.16 1.50 1.36 1.03 1.26 1.42 1.67 1.14 0.83 0.85 0.95 0.96 1.18 1.14 0.98 0.68 0.88 1.29 1.04 0.72 0.37 0.27 0.20
0.42 0.43 0.63 0.31 0.26 0.38 0.74 0.95 1.02 1.06 1.30 1.15 1.07 1.22 1.49 1.47 1.36 1.21 0.80 0.80 0.93 1.39 1.44 1.41 0.90 1.19 1.50 1.65 1.29 1.03 0.57 0.38
0.08 0.09 0.36 0.36 0.36 0.50 0.80 1.23 1.26 1.32 1.55 1.42 1.21 1.47 1.44 1.56 1.26 1.48 1.32 1.33 1.14 1.30 1.56 1.39 0.99 1.08 1.26 1.47 1.46 1.15 0.82 0.68
0.05 0.12 0.28 0.58 0.66 0.66 0.70 0.95 0.93 1.03 1.12 1.40 1.28 1.30 1.45 1.56 1.58 1.72 1.67 1.58 1.54 1.44 1.62 1.54 1.55 1.21 1.36 1.12 1.07 1.11 1.16 0.87
0.31 0.42 0.48 0.59 0.71 0.81 0.78 0.88 0.95 1.03 1.18 1.51 1.68 1.27 1.10 1.15 1.40 1.54 1.71 1.72 1.64 1.72 1.72 1.84 1.80 1.97 1.99 1.99 1.88 1.74 1.80 1.81
0.54 0.54 0.56 0.65 0.73 0.83 0.88 0.88 0.95 0.90 1.13 1.52 2.25 2.24 1.74 1.50 1.51 1.51 1.66 1.80 1.67 1.91 2.01 1.89 2.16 2.30 2.50 2.85 2.93 2.94 2.77 2.79
0.72 0.74 0.66 0.74 0.86 0.94 0.97 1.04 1.00 1.03 1.06 1.20 1.71 2.78 2.82 2.36 2.10 2.20 2.37 2.66 2.88 2.96 3.13 2.98 2.77 2.92 2.58 2.51 2.51 2.52 2.67 3.18
0.83 0.95 0.96 0.81 0.84 1.07 1.17 1.22 1.44 1.45 1.50 1.52 1.51 1.77 2.44 2.69 2.61 2.48 2.89 3.53 3.77 4.16 4.09 3.85 3.88 3.76 3.62 3.32 2.99 2.66 2.42 2.25

GFSFLT2_prec_precacc_240.txt.gz
Total_Precipitation_Accumulation
5.29 7.55 5.19 4.08 4.32 3.31 3.34 2.38 2.16 1.90 1.39 0.82 0.43 0.44 0.59 0.33 0.27 0.21 0.15 0.13 0.18 0.26 0.19 0.15 0.09 0.06 0.07 0.06 0.13 0.04 0.14 0.47
6.78 6.77 5.27 3.53 3.46 4.04 3.26 3.43 2.82 2.05 1.61 1.32 0.47 0.54 0.47 0.51 0.32 0.26 0.15 0.09 0.11 0.13 0.21 0.24 0.28 0.27 0.08 0.08 0.22 0.17 0.13 0.29
5.86 7.32 6.12 3.64 2.53 3.44 2.97 3.66 3.20 2.04 1.59 2.08 0.83 0.42 0.44 0.39 0.29 0.18 0.17 0.11 0.11 0.17 0.38 0.35 0.30 0.26 0.18 0.20 0.21 0.12 0.17 0.10
3.34 5.36 6.95 4.41 2.99 2.12 2.22 2.96 4.65 2.35 1.57 1.79 1.46 0.60 0.52 0.36 0.30 0.28 0.30 0.28 0.33 0.61 0.62 0.49 0.31 0.16 0.16 0.30 0.13 0.08 0.18 0.13
1.49 2.51 4.27 3.75 3.14 2.62 2.27 2.44 4.19 3.53 1.70 1.25 1.59 0.71 0.71 0.56 0.49 0.53 0.50 0.47 0.58 0.62 0.68 0.72 0.64 0.40 0.28 0.47 0.26 0.13 0.36 0.63
1.14 0.98 2.12 2.14 1.87 2.22 2.07 1.44 2.06 3.80 1.92 1.47 1.24 1.22 0.77 0.52 0.34 0.37 0.35 0.31 0.38 0.41 0.58 0.60 0.48 0.47 0.44 0.23 0.16 0.11 0.16 0.36
1.09 0.88 1.18 1.71 1.81 1.88 1.58 0.94 1.27 2.74 2.32 1.70 1.09 1.32 1.09 0.75 0.53 0.29 0.22 0.24 0.29 0.24 0.29 0.31 0.28 0.30 0.32 0.25 0.21 0.16 0.14 0.22
0.62 0.80 0.73 1.09 1.61 1.31 1.42 0.98 1.02 2.02 2.46 1.77 1.20 0.91 0.94 0.55 0.45 0.43 0.46 0.42 0.29 0.25 0.27 0.26 0.37 0.59 0.62 0.48 0.29 0.18 0.17 0.16
0.46 0.57 0.67 1.09 1.40 1.13 1.07 0.97 0.84 1.29 2.07 1.81 1.80 1.06 0.89 0.66 0.46 0.36 0.34 0.40 0.57 0.61 0.49 0.35 0.29 0.35 0.61 0.44 0.31 0.22 0.24 0.16
0.32 0.68 1.01 1.05 1.17 1.11 1.18 0.96 0.87 1.26 1.73 1.73 1.89 1.76 0.89 0.89 0.65 0.36 0.30 0.50 0.75 0.91 0.70 0.39 0.32 0.31 0.32 0.20 0.12 0.15 0.17 0.18
0.52 0.90 1.33 1.61 1.50 1.52 1.97 1.75 1.40 1.26 1.60 1.63 1.29 1.85 1.30 0.88 0.85 0.66 0.69 0.59 0.73 1.07 0.99 0.80 0.53 0.32 0.32 0.31 0.15 0.09 0.12 0.16
0.71 1.16 1.45 1.62 2.42 2.26 2.08 1.56 1.48 1.35 1.49 1.48 1.36 1.61 1.81 1.34 1.02 0.91 1.05 1.05 0.82 0.85 1.01 0.96 0.88 0.74 0.64 0.52 0.31 0.17 0.16 0.17
0.84 1.27 1.59 1.30 0.95 0.82 1.06 1.00 0.95 1.16 1.50 1.36 1.03 1.26 1.42 1.67 1.14 0.83 0.85 0.95 0.96 1.18 1.14 0.98 0.68 0.88 1.29 1.04 0.72 0.37 0.27 0.20
0.43 0.43 0.63 0.32 0.27 0.39 0.74 0.95 1.02 1.06 1.30 1.15 1.07 1.22 1.49 1.47 1.36 1.21 0.80 0.80 0.93 1.39 1.44 1.41 0.90 1.19 1.50 1.65 1.29 1.03 0.57 0.38
0.08 0.09 0.37 0.36 0.36 0.51 0.80 1.23 1.26 1.32 1.55 1.42 1.21 1.47 1.44 1.56 1.26 1.48 1.32 1.33 1.14 1.30 1.56 1.39 0.99 1.08 1.26 1.47 1.46 1.15 0.82 0.68
0.05 0.12 0.29 0.59 0.66 0.66 0.71 0.95 0.93 1.03 1.12 1.40 1.28 1.30 1.45 1.56 1.58 1.72 1.67 1.58 1.54 1.44 1.62 1.54 1.55 1.21 1.36 1.12 1.07 1.11 1.16 0.87
0.31 0.42 0.48 0.59 0.71 0.82 0.79 0.88 0.95 1.03 1.18 1.51 1.68 1.27 1.10 1.15 1.40 1.54 1.71 1.72 1.64 1.72 1.72 1.84 1.80 1.97 1.99 1.99 1.88 1.74 1.80 1.81
0.54 0.54 0.56 0.65 0.74 0.83 0.88 0.88 0.95 0.90 1.13 1.52 2.25 2.24 1.74 1.50 1.51 1.51 1.66 1.80 1.67 1.91 2.01 1.89 2.16 2.30 2.50 2.85 2.93 2.94 2.77 2.79
0.72 0.74 0.66 0.75 0.86 0.95 0.97 1.04 1.00 1.03 1.06 1.20 1.71 2.78 2.82 2.36 2.10 2.20 2.37 2.66 2.88 2.96 3.13 2.98 2.77 2.92 2.58 2.51 2.51 2.52 2.67 3.18
0.83 0.95 0.96 0.81 0.84 1.07 1.17 1.22 1.44 1.45 1.50 1.52 1.51 1.77 2.44 2.69 2.61 2.48 2.89 3.53 3.77 4.16 4.09 3.85 3.88 3.76 3.62 3.32 2.99 2.66 2.42 2.25

GFSFLT2_prec_precacc_246.txt.gz
Total_Precipitation_Accumulation
5.29 7.55 5.19 4.08 4.32 3.31 3.34 2.38 2.16 1.90 1.39 0.82 0.43 0.44 0.59 0.33 0.27 0.21 0.15 0.13 0.18 0.26 0.19 0.15 0.09 0.06 0.07 0.06 0.13 0.04 0.14 0.47
6.78 6.77 5.27 3.53 3.46 4.04 3.26 3.43 2.82 2.05 1.61 1.32 0.47 0.54 0.47 0.51 0.32 0.26 0.15 0.09 0.11 0.13 0.21 0.24 0.28 0.27 0.08 0.08 0.22 0.17 0.13 0.29
5.86 7.32 6.12 3.64 2.53 3.44 2.97 3.66 3.20 2.04 1.59 2.08 0.83 0.42 0.44 0.39 0.29 0.18 0.17 0.11 0.11 0.17 0.38 0.35 0.30 0.26 0.18 0.20 0.21 0.12 0.17 0.10
3.34 5.36 6.95 4.41 2.99 2.12 2.22 2.96 4.65 2.35 1.57 1.79 1.46 0.60 0.52 0.36 0.30 0.28 0.30 0.28 0.33 0.61 0.62 0.49 0.31 0.16 0.16 0.30 0.13 0.08 0.18 0.13
1.49 2.51 4.28 3.75 3.14 2.62 2.27 2.44 4.20 3.53 1.70 1.26 1.59 0.71 0.71 0.56 0.49 0.53 0.50 0.47 0.58 0.62 0.68 0.72 0.64 0.41 0.28 0.47 0.26 0.13 0.36 0.63
1.14 0.98 2.12 2.14 1.87 2.23 2.08 1.44 2.07 3.80 1.93 1.47 1.24 1.22 0.77 0.52 0.34 0.37 0.35 0.31 0.38 0.41 0.58 0.60 0.49 0.49 0.47 0.26 0.17 0.12 0.16 0.36
1.09 0.88 1.18 1.71 1.81 1.88 1.58 0.94 1.27 2.74 2.33 1.70 1.09 1.33 1.12 0.76 0.54 0.29 0.22 0.24 0.29 0.25 0.31 0.33 0.32 0.34 0.34 0.26 0.22 0.16 0.14 0.22
0.62 0.80 0.73 1.09 1.61 1.31 1.42 0.98 1.02 2.02 2.47 1.77 1.21 1.01 1.05 0.64 0.53 0.52 0.56 0.52 0.36 0.31 0.35 0.34 0.46 0.61 0.62 0.49 0.29 0.18 0.17 0.16
0.46 0.57 0.67 1.09 1.40 1.13 1.07 0.97 0.84 1.29 2.07 1.83 1.88 1.19 1.12 0.89 0.60 0.46 0.38 0.42 0.57 0.62 0.50 0.35 0.29 0.35 0.61 0.44 0.31 0.22 0.24 0.16
0.32 0.68 1.01 1.05 1.17 1.11 1.18 0.96 0.88 1.28 1.77 1.81 1.97 1.86 1.00 0.94 0.66 0.37 0.30 0.50 0.75 0.91 0.70 0.39 0.32 0.31 0.32 0.20 0.12 0.15 0.17 0.18
0.52 0.90 1.33 1.61 1.50 1.52 1.97 1.76 1.42 1.29 1.63 1.66 1.33 1.94 1.38 0.95 0.90 0.67 0.69 0.59 0.73 1.07 0.99 0.80 0.53 0.32 0.32 0.31 0.15 0.09 0.12 0.16
0.71 1.16 1.45 1.62 2.42 2.28 2.09 1.57 1.50 1.36 1.50 1.48 1.36 1.61 1.82 1.34 1.02 0.91 1.05 1.05 0.82 0.85 1.01 0.96 0.88 0.74 0.64 0.52 0.31 0.17 0.16 0.17
0.84 1.27 1.59 1.31 0.96 0.83 1.07 1.01 0.95 1.16 1.50 1.36 1.03 1.26 1.42 1.67 1.14 0.83 0.85 0.95 0.96 1.18 1.14 0.98 0.68 0.88 1.29 1.04 0.72 0.37 0.27 0.20
0.43 0.43 0.63 0.33 0.30 0.39 0.76 0.98 1.04 1.06 1.30 1.15 1.07 1.22 1.49 1.47 1.36 1.21 0.80 0.80 0.93 1.39 1.44 1.41 0.90 1.19 1.50 1.65 1.29 1.03 0.57 0.38
0.08 0.09 0.37 0.38 0.38 0.52 0.82 1.28 1.27 1.32 1.55 1.42 1.21 1.47 1.44 1.56 1.26 1.48 1.32 1.33 1.14 1.30 1.56 1.39 0.99 1.08 1.26 1.47 1.46 1.15 0.82 0.68
0.06 0.13 0.29 0.59 0.67 0.67 0.74 0.98 0.93 1.03 1.12 1.40 1.28 1.30 1.45 1.56 1.58 1.72 1.67 1.58 1.54 1.44 1.62 1.54 1.55 1.21 1.36 1.12 1.07 1.11 1.16 0.87
0.31 0.46 0.50 0.62 0.72 0.83 0.81 0.91 0.96 1.03 1.18 1.51 1.68 1.27 1.10 1.15 1.40 1.54 1.71 1.72 1.64 1.72 1.72 1.84 1.80 1.97 1.99 1.99 1.88 1.74 1.80 1.81
0.55 0.56 0.56 0.68 0.75 0.84 0.90 0.90 0.96 0.90 1.13 1.52 2.25 2.24 1.74 1.50 1.51 1.51 1.66 1.80 1.67 1.91 2.01 1.89 2.16 2.30 2.50 2.85 2.93 2.94 2.77 2.79
0.73 0.75 0.67 0.76 0.88 0.96 0.99 1.07 1.01 1.03 1.06 1.20 1.71 2.78 2.82 2.36 2.10 2.20 2.37 2.66 2.88 2.96 3.13 2.98 2.77 2.92 2.58 2.51 2.51 2.52 2.67 3.18
0.83 0.95 0.98 0.83 0.86 1.08 1.18 1.24 1.44 1.45 1.50 1.52 1.51 1.77 2.44 2.69 2.61 2.48 2.89 3.53 3.77 4.16 4.09 3.85 3.88 3.76 3.62 3.32 2.99 2.66 2.42 2.25